| time (UTC) | temp C | wind direction | speed KPH | gust KPH | rain 1hr cm | rain 24hr cm | rain mn cm | humidity % | barometer mb |
| 20260508234100 | 11 | 5 | 11.3 | 27.4 | 0.00 | 0.00 | 0.00 | 25 | 974.0 |
| 20260508233559 | 11 | 344 | 17.7 | 27.4 | 0.00 | 0.00 | 0.00 | 24 | 974.3 |
| 20260508233101 | 11 | 334 | 17.7 | 29.0 | 0.00 | 0.00 | 0.00 | 24 | 974.3 |
| 20260508232558 | 11 | 305 | 14.5 | 27.4 | 0.00 | 0.00 | 0.00 | 23 | 974.4 |
| 20260508232058 | 11 | 355 | 14.5 | 27.4 | 0.00 | 0.00 | 0.00 | 24 | 974.2 |
| 20260508231558 | 11 | 319 | 9.7 | 27.4 | 0.00 | 0.00 | 0.00 | 24 | 974.3 |
| 20260508231058 | 12 | 336 | 14.5 | 27.4 | 0.00 | 0.00 | 0.00 | 24 | 974.2 |
| 20260508230559 | 12 | 360 | 8.0 | 25.7 | 0.00 | 0.00 | 0.00 | 23 | 974.1 |
| 20260508230104 | 12 | 51 | 14.5 | 25.7 | 0.00 | 0.00 | 0.00 | 22 | 974.1 |
| 20260508225558 | 12 | 355 | 12.9 | 24.1 | 0.00 | 0.00 | 0.00 | 22 | 974.1 |
| 20260508225057 | 12 | 13 | 8.0 | 20.9 | 0.00 | 0.00 | 0.00 | 21 | 974.1 |
| 20260508224558 | 12 | 19 | 11.3 | 22.5 | 0.00 | 0.00 | 0.00 | 21 | 974.3 |
| 20260508224058 | 12 | 28 | 6.4 | 22.5 | 0.00 | 0.00 | 0.00 | 24 | 974.3 |
| 20260508223557 | 12 | 324 | 11.3 | 25.7 | 0.00 | 0.00 | 0.00 | 24 | 974.4 |
| 20260508223057 | 12 | 335 | 16.1 | 25.7 | 0.00 | 0.00 | 0.00 | 24 | 974.4 |
| 20260508222557 | 12 | 350 | 12.9 | 24.1 | 0.00 | 0.00 | 0.00 | 24 | 974.4 |
| 20260508222057 | 12 | 43 | 11.3 | 24.1 | 0.00 | 0.00 | 0.00 | 23 | 974.3 |
| 20260508221600 | 12 | 11 | 6.4 | 24.1 | 0.00 | 0.00 | 0.00 | 26 | 974.3 |
| 20260508221056 | 12 | 338 | 8.0 | 25.7 | 0.00 | 0.00 | 0.00 | 26 | 974.5 |
| 20260508220559 | 12 | 5 | 11.3 | 27.4 | 0.00 | 0.00 | 0.00 | 24 | 974.4 |
| 20260508220057 | 13 | 347 | 14.5 | 27.4 | 0.00 | 0.00 | 0.00 | 24 | 974.4 |
| 20260508215556 | 13 | 305 | 14.5 | 22.5 | 0.00 | 0.00 | 0.00 | 24 | 974.4 |
| 20260508215056 | 12 | 355 | 11.3 | 27.4 | 0.00 | 0.00 | 0.00 | 25 | 974.4 |
| 20260508214609 | 12 | 323 | 17.7 | 29.0 | 0.00 | 0.00 | 0.00 | 24 | 974.6 |
| 20260508214059 | 13 | 341 | 16.1 | 29.0 | 0.00 | 0.00 | 0.00 | 24 | 974.5 |
| 20260508213555 | 13 | 355 | 12.9 | 19.3 | 0.00 | 0.00 | 0.00 | 23 | 974.5 |
| 20260508213111 | 13 | 344 | 11.3 | 22.5 | 0.00 | 0.00 | 0.00 | 24 | 974.5 |
| 20260508212558 | 13 | 350 | 8.0 | 24.1 | 0.00 | 0.00 | 0.00 | 24 | 974.5 |
| 20260508212056 | 13 | 349 | 11.3 | 24.1 | 0.00 | 0.00 | 0.00 | 24 | 974.6 |
| 20260508211558 | 13 | 344 | 14.5 | 22.5 | 0.00 | 0.00 | 0.00 | 23 | 974.7 |
| 20260508211054 | 13 | 348 | 11.3 | 25.7 | 0.00 | 0.00 | 0.00 | 24 | 974.7 |
| 20260508210557 | 13 | 21 | 14.5 | 25.7 | 0.00 | 0.00 | 0.00 | 24 | 974.8 |
| 20260508210054 | 13 | 11 | 12.9 | 22.5 | 0.00 | 0.00 | 0.00 | 24 | 974.7 |
| 20260508205553 | 13 | 5 | 12.9 | 22.5 | 0.00 | 0.00 | 0.00 | 25 | 974.7 |
| 20260508205053 | 12 | 304 | 12.9 | 25.7 | 0.00 | 0.00 | 0.00 | 24 | 974.8 |
| 20260508204604 | 13 | 332 | 9.7 | 25.7 | 0.00 | 0.00 | 0.00 | 26 | 974.7 |
| 20260508204054 | 12 | 321 | 14.5 | 25.7 | 0.00 | 0.00 | 0.00 | 23 | 974.7 |
| 20260508203553 | 13 | 311 | 14.5 | 25.7 | 0.00 | 0.00 | 0.00 | 24 | 974.9 |
| 20260508203057 | 12 | 27 | 11.3 | 27.4 | 0.00 | 0.00 | 0.00 | 24 | 974.9 |
| 20260508202553 | 12 | 18 | 9.7 | 27.4 | 0.00 | 0.00 | 0.00 | 24 | 974.8 |
| 20260508202051 | 12 | 340 | 11.3 | 27.4 | 0.00 | 0.00 | 0.00 | 24 | 974.9 |
| 20260508201607 | 13 | 308 | 19.3 | 27.4 | 0.00 | 0.00 | 0.00 | 24 | 974.9 |
| 20260508201053 | 12 | 5 | 14.5 | 25.7 | 0.00 | 0.00 | 0.00 | 24 | 974.8 |
| 20260508200552 | 12 | 297 | 12.9 | 25.7 | 0.00 | 0.00 | 0.00 | 25 | 974.9 |
| 20260508200104 | 12 | 27 | 11.3 | 24.1 | 0.00 | 0.00 | 0.00 | 24 | 974.9 |
| 20260508195550 | 12 | 340 | 14.5 | 24.1 | 0.00 | 0.00 | 0.00 | 25 | 974.9 |
| 20260508195050 | 12 | 311 | 12.9 | 20.9 | 0.00 | 0.00 | 0.00 | 25 | 974.9 |
| 20260508194551 | 12 | 360 | 11.3 | 24.1 | 0.00 | 0.00 | 0.00 | 25 | 975.0 |
| 20260508194049 | 12 | 300 | 8.0 | 27.4 | 0.00 | 0.00 | 0.00 | 24 | 975.0 |
| 20260508193549 | 12 | 343 | 16.1 | 27.4 | 0.00 | 0.00 | 0.00 | 25 | 974.9 |
| 20260508193055 | 12 | 49 | 12.9 | 27.4 | 0.00 | 0.00 | 0.00 | 24 | 975.1 |
| 20260508192549 | 12 | 344 | 6.4 | 27.4 | 0.00 | 0.00 | 0.00 | 26 | 975.4 |
| 20260508192049 | 12 | 346 | 19.3 | 27.4 | 0.00 | 0.00 | 0.00 | 25 | 975.2 |
| 20260508191550 | 12 | 273 | 12.9 | 25.7 | 0.00 | 0.00 | 0.00 | 26 | 975.3 |
| 20260508191048 | 12 | 360 | 9.7 | 25.7 | 0.00 | 0.00 | 0.00 | 26 | 975.3 |
| 20260508190549 | 12 | 320 | 11.3 | 25.7 | 0.00 | 0.00 | 0.00 | 26 | 975.4 |
| 20260508190052 | 12 | 328 | 14.5 | 29.0 | 0.00 | 0.00 | 0.00 | 25 | 975.6 |
| 20260508185547 | 12 | 17 | 11.3 | 29.0 | 0.00 | 0.00 | 0.00 | 25 | 975.7 |
| 20260508185045 | 12 | 290 | 9.7 | 20.9 | 0.00 | 0.00 | 0.00 | 26 | 975.4 |
| 20260508184547 | 12 | 340 | 6.4 | 27.4 | 0.00 | 0.00 | 0.00 | 26 | 975.6 |
| 20260508184047 | 12 | 306 | 14.5 | 25.7 | 0.00 | 0.00 | 0.00 | 25 | 975.5 |
| 20260508183544 | 12 | 15 | 9.7 | 27.4 | 0.00 | 0.00 | 0.00 | 25 | 975.5 |
| 20260508183044 | 12 | 350 | 12.9 | 25.7 | 0.00 | 0.00 | 0.00 | 26 | 975.6 |
| 20260508182544 | 11 | 5 | 9.7 | 25.7 | 0.00 | 0.00 | 0.00 | 25 | 975.6 |
| 20260508182044 | 12 | 330 | 17.7 | 25.7 | 0.00 | 0.00 | 0.00 | 25 | 975.8 |
| 20260508181606 | 11 | 331 | 9.7 | 25.7 | 0.00 | 0.00 | 0.00 | 26 | 975.7 |
| 20260508181043 | 12 | 349 | 17.7 | 25.7 | 0.00 | 0.00 | 0.00 | 25 | 975.8 |
| 20260508180543 | 11 | 17 | 14.5 | 24.1 | 0.00 | 0.00 | 0.00 | 25 | 975.8 |
| 20260508180057 | 11 | 298 | 17.7 | 24.1 | 0.00 | 0.00 | 0.00 | 24 | 975.9 |
| 20260508175543 | 11 | 19 | 12.9 | 25.7 | 0.00 | 0.00 | 0.00 | 25 | 976.0 |
| 20260508175042 | 11 | 350 | 11.3 | 27.4 | 0.00 | 0.00 | 0.00 | 25 | 975.9 |
| 20260508174541 | 11 | 332 | 14.5 | 29.0 | 0.00 | 0.00 | 0.00 | 25 | 976.0 |
| 20260508174039 | 11 | 346 | 16.1 | 29.0 | 0.00 | 0.00 | 0.00 | 25 | 976.1 |
| 20260508173539 | 11 | 9 | 14.5 | 29.0 | 0.00 | 0.00 | 0.00 | 25 | 976.2 |
| 20260508173045 | 11 | 344 | 16.1 | 29.0 | 0.00 | 0.00 | 0.00 | 25 | 976.1 |
| 20260508172537 | 11 | 325 | 17.7 | 27.4 | 0.00 | 0.00 | 0.00 | 24 | 976.1 |
| 20260508172037 | 11 | 295 | 17.7 | 30.6 | 0.00 | 0.00 | 0.00 | 23 | 976.1 |
| 20260508171538 | 11 | 297 | 14.5 | 30.6 | 0.00 | 0.00 | 0.00 | 25 | 976.1 |
| 20260508171034 | 11 | 342 | 12.9 | 25.7 | 0.00 | 0.00 | 0.00 | 25 | 976.2 |
| 20260508170533 | 11 | 12 | 12.9 | 27.4 | 0.00 | 0.00 | 0.00 | 25 | 976.4 |
| 20260508170032 | 11 | 360 | 16.1 | 33.8 | 0.00 | 0.00 | 0.00 | 25 | 976.4 |
| 20260508165531 | 11 | 346 | 17.7 | 33.8 | 0.00 | 0.00 | 0.00 | 25 | 976.4 |
| 20260508165033 | 11 | 355 | 16.1 | 24.1 | 0.00 | 0.00 | 0.00 | 26 | 976.3 |
| 20260508164537 | 11 | 328 | 16.1 | 25.7 | 0.00 | 0.00 | 0.00 | 25 | 976.2 |
| 20260508164027 | 11 | 319 | 17.7 | 25.7 | 0.00 | 0.00 | 0.00 | 25 | 976.2 |
| 20260508163525 | 11 | 318 | 12.9 | 27.4 | 0.00 | 0.00 | 0.00 | 26 | 976.2 |
| 20260508163024 | 11 | 333 | 14.5 | 27.4 | 0.00 | 0.00 | 0.00 | 25 | 976.1 |
| 20260508162523 | 10 | 300 | 17.7 | 27.4 | 0.00 | 0.00 | 0.00 | 27 | 976.1 |
| 20260508162024 | 11 | 313 | 17.7 | 27.4 | 0.00 | 0.00 | 0.00 | 25 | 976.1 |
| 20260508161520 | 11 | 328 | 14.5 | 24.1 | 0.00 | 0.00 | 0.00 | 28 | 976.2 |
| 20260508161019 | 10 | 355 | 14.5 | 24.1 | 0.00 | 0.00 | 0.00 | 27 | 976.3 |
| 20260508160518 | 10 | 294 | 16.1 | 24.1 | 0.00 | 0.00 | 0.00 | 27 | 976.4 |
| 20260508160032 | 10 | 5 | 16.1 | 24.1 | 0.00 | 0.00 | 0.00 | 27 | 976.3 |
| 20260508155515 | 10 | 331 | 14.5 | 22.5 | 0.00 | 0.00 | 0.00 | 29 | 976.3 |
| 20260508155014 | 10 | 355 | 14.5 | 25.7 | 0.00 | 0.00 | 0.00 | 30 | 976.3 |
| 20260508154513 | 10 | 306 | 17.7 | 24.1 | 0.00 | 0.00 | 0.00 | 31 | 976.3 |
| 20260508154015 | 10 | 331 | 8.0 | 20.9 | 0.00 | 0.00 | 0.00 | 31 | 976.2 |
| 20260508153510 | 10 | 360 | 9.7 | 25.7 | 0.00 | 0.00 | 0.00 | 33 | 976.1 |
| 20260508153009 | 10 | 344 | 17.7 | 25.7 | 0.00 | 0.00 | 0.00 | 31 | 976.1 |
| 20260508152507 | 10 | 314 | 11.3 | 24.1 | 0.00 | 0.00 | 0.00 | 33 | 976.0 |
| 20260508152006 | 9 | 326 | 16.1 | 25.7 | 0.00 | 0.00 | 0.00 | 37 | 976.4 |
| 20260508151507 | 9 | 296 | 16.1 | 25.7 | 0.00 | 0.00 | 0.00 | 41 | 976.4 |
| 20260508151006 | 9 | 312 | 14.5 | 24.1 | 0.00 | 0.00 | 0.00 | 39 | 976.3 |
| 20260508150508 | 9 | 279 | 16.1 | 25.7 | 0.00 | 0.00 | 0.00 | 46 | 976.2 |
| 20260508150005 | 9 | 291 | 17.7 | 24.1 | 0.00 | 0.00 | 0.00 | 45 | 976.3 |
| 20260508145507 | 9 | 269 | 12.9 | 24.1 | 0.00 | 0.00 | 0.00 | 46 | 976.2 |
| 20260508145002 | 9 | 323 | 16.1 | 29.0 | 0.00 | 0.00 | 0.00 | 46 | 976.1 |
| 20260508144502 | 9 | 331 | 12.9 | 25.7 | 0.00 | 0.00 | 0.00 | 44 | 976.1 |
| 20260508144003 | 9 | 322 | 14.5 | 24.1 | 0.00 | 0.00 | 0.00 | 44 | 976.1 |
| 20260508143502 | 9 | 301 | 14.5 | 24.1 | 0.00 | 0.00 | 0.00 | 41 | 976.1 |
| 20260508143101 | 9 | 298 | 14.5 | 24.1 | 0.00 | 0.00 | 0.00 | 38 | 976.0 |
| 20260508142559 | 9 | 332 | 12.9 | 20.9 | 0.00 | 0.00 | 0.00 | 37 | 976.0 |
| 20260508142059 | 9 | 296 | 11.3 | 22.5 | 0.00 | 0.00 | 0.00 | 38 | 976.0 |
| 20260508141615 | 9 | 21 | 14.5 | 22.5 | 0.00 | 0.00 | 0.00 | 37 | 976.0 |
| 20260508141058 | 9 | 302 | 14.5 | 22.5 | 0.00 | 0.00 | 0.00 | 37 | 975.9 |
| 20260508140600 | 9 | 329 | 6.4 | 17.7 | 0.00 | 0.00 | 0.00 | 38 | 975.9 |
| 20260508140110 | 8 | 351 | 11.3 | 17.7 | 0.00 | 0.00 | 0.00 | 37 | 975.9 |
| 20260508135559 | 8 | 355 | 6.4 | 14.5 | 0.00 | 0.00 | 0.00 | 35 | 975.9 |
| 20260508135053 | 8 | 355 | 4.8 | 16.1 | 0.00 | 0.00 | 0.00 | 36 | 975.9 |
| 20260508134553 | 8 | 345 | 6.4 | 16.1 | 0.00 | 0.00 | 0.00 | 37 | 975.8 |
| 20260508134051 | 8 | 325 | 4.8 | 12.9 | 0.00 | 0.00 | 0.00 | 38 | 975.7 |
| 20260508133552 | 8 | 35 | 6.4 | 12.9 | 0.00 | 0.00 | 0.00 | 38 | 975.7 |
| 20260508133051 | 7 | 37 | 4.8 | 12.9 | 0.00 | 0.00 | 0.00 | 40 | 975.7 |
| 20260508132547 | 7 | 355 | 3.2 | 11.3 | 0.00 | 0.00 | 0.00 | 40 | 975.6 |
| 20260508132046 | 7 | 9 | 1.6 | 11.3 | 0.00 | 0.00 | 0.00 | 42 | 975.6 |
| 20260508131545 | 6 | 22 | 3.2 | 9.7 | 0.00 | 0.00 | 0.00 | 44 | 975.5 |
| 20260508131044 | 6 | 329 | 3.2 | 12.9 | 0.00 | 0.00 | 0.00 | 44 | 975.5 |
| 20260508130545 | 6 | 360 | 6.4 | 12.9 | 0.00 | 0.00 | 0.00 | 44 | 975.4 |
| 20260508130043 | 5 | 333 | 3.2 | 14.5 | 0.00 | 0.00 | 0.00 | 45 | 975.3 |
| 20260508125539 | 5 | 342 | 6.4 | 12.9 | 0.00 | 0.00 | 0.00 | 46 | 975.3 |
| 20260508125037 | 5 | 346 | 8.0 | 12.9 | 0.00 | 0.00 | 0.00 | 47 | 975.2 |
| 20260508124537 | 4 | 339 | 6.4 | 12.9 | 0.00 | 0.00 | 0.00 | 48 | 975.2 |
| 20260508124037 | 4 | 348 | 4.8 | 8.0 | 0.00 | 0.00 | 0.00 | 47 | 975.1 |
| 20260508123540 | 4 | 26 | 1.6 | 9.7 | 0.00 | 0.00 | 0.00 | 46 | 974.8 |
| 20260508123037 | 4 | 38 | 3.2 | 9.7 | 0.00 | 0.00 | 0.00 | 46 | 974.7 |
| 20260508122537 | 4 | 41 | 3.2 | 9.7 | 0.00 | 0.00 | 0.00 | 47 | 974.6 |
| 20260508122038 | 3 | 42 | 3.2 | 9.7 | 0.00 | 0.00 | 0.00 | 48 | 974.6 |
| 20260508121537 | 3 | 5 | 3.2 | 12.9 | 0.00 | 0.00 | 0.00 | 48 | 974.6 |
| 20260508121036 | 3 | 346 | 4.8 | 9.7 | 0.00 | 0.00 | 0.00 | 48 | 974.7 |
| 20260508120536 | 3 | 43 | 4.8 | 12.9 | 0.00 | 0.00 | 0.00 | 48 | 974.5 |
| 20260508120039 | 3 | 5 | 6.4 | 12.9 | 0.00 | 0.00 | 0.00 | 48 | 974.4 |
| 20260508115536 | 3 | 331 | 3.2 | 8.0 | 0.00 | 0.00 | 0.00 | 47 | 974.3 |
| 20260508115034 | 3 | 92 | 1.6 | 6.4 | 0.00 | 0.00 | 0.00 | 49 | 974.0 |
| 20260508114534 | 3 | 92 | 3.2 | 9.7 | 0.00 | 0.00 | 0.00 | 49 | 973.8 |
| 20260508114034 | 3 | 92 | 4.8 | 9.7 | 0.00 | 0.00 | 0.00 | 49 | 973.7 |
| 20260508113534 | 3 | 92 | 3.2 | 6.4 | 0.00 | 0.00 | 0.00 | 49 | 973.8 |
| 20260508113035 | 3 | 66 | 3.2 | 6.4 | 0.00 | 0.00 | 0.00 | 48 | 973.8 |
| 20260508112534 | 3 | 36 | 3.2 | 6.4 | 0.00 | 0.00 | 0.00 | 49 | 973.8 |
| 20260508112034 | 3 | 39 | 1.6 | 6.4 | 0.00 | 0.00 | 0.00 | 49 | 973.9 |
| 20260508111550 | 3 | 57 | 1.6 | 4.8 | 0.00 | 0.00 | 0.00 | 49 | 974.0 |
| 20260508111034 | 3 | 71 | 0.0 | 4.8 | 0.00 | 0.00 | 0.00 | 50 | 973.8 |
| 20260508110536 | 3 | 57 | 1.6 | 6.4 | 0.00 | 0.00 | 0.00 | 50 | 973.9 |
| 20260508110037 | 3 | 45 | 1.6 | 6.4 | 0.00 | 0.00 | 0.00 | 50 | 973.9 |
| 20260508105536 | 3 | 43 | 3.2 | 6.4 | 0.00 | 0.00 | 0.00 | 50 | 973.8 |
| 20260508105033 | 3 | 44 | 3.2 | 9.7 | 0.00 | 0.00 | 0.00 | 50 | 973.9 |
| 20260508104532 | 2 | 46 | 3.2 | 6.4 | 0.00 | 0.00 | 0.00 | 49 | 973.9 |
| 20260508104032 | 2 | 90 | 0.0 | 4.8 | 0.00 | 0.00 | 0.00 | 50 | 973.9 |
| 20260508103532 | 2 | 91 | 1.6 | 4.8 | 0.00 | 0.00 | 0.00 | 50 | 973.9 |
| 20260508103037 | 2 | 91 | 3.2 | 4.8 | 0.00 | 0.00 | 0.00 | 51 | 973.8 |
| 20260508102531 | 2 | 91 | 3.2 | 4.8 | 0.00 | 0.00 | 0.00 | 52 | 974.0 |
| 20260508102031 | 2 | 91 | 1.6 | 4.8 | 0.00 | 0.00 | 0.00 | 50 | 973.9 |
| 20260508101539 | 3 | 91 | 3.2 | 6.4 | 0.00 | 0.00 | 0.00 | 50 | 974.0 |
| 20260508101031 | 3 | 360 | 3.2 | 9.7 | 0.00 | 0.00 | 0.00 | 50 | 974.0 |
| 20260508100530 | 3 | 121 | 3.2 | 9.7 | 0.00 | 0.00 | 0.00 | 50 | 974.0 |
| 20260508100030 | 3 | 111 | 3.2 | 9.7 | 0.00 | 0.00 | 0.00 | 50 | 973.8 |
| 20260508095530 | 3 | 150 | 4.8 | 9.7 | 0.00 | 0.00 | 0.00 | 50 | 973.9 |
| 20260508095029 | 3 | 123 | 4.8 | 9.7 | 0.00 | 0.00 | 0.00 | 50 | 974.0 |
| 20260508094529 | 3 | 123 | 4.8 | 8.0 | 0.00 | 0.00 | 0.00 | 50 | 974.0 |
| 20260508094028 | 3 | 126 | 4.8 | 9.7 | 0.00 | 0.00 | 0.00 | 50 | 974.2 |
| 20260508093528 | 3 | 130 | 4.8 | 6.4 | 0.00 | 0.00 | 0.00 | 50 | 974.2 |
| 20260508093027 | 3 | 121 | 3.2 | 6.4 | 0.00 | 0.00 | 0.00 | 50 | 974.4 |
| 20260508092526 | 3 | 132 | 3.2 | 8.0 | 0.00 | 0.00 | 0.00 | 50 | 974.4 |
| 20260508092026 | 3 | 139 | 1.6 | 11.3 | 0.00 | 0.00 | 0.00 | 50 | 974.5 |
| 20260508091526 | 3 | 140 | 3.2 | 11.3 | 0.00 | 0.00 | 0.00 | 49 | 974.5 |
| 20260508091026 | 3 | 148 | 3.2 | 8.0 | 0.00 | 0.00 | 0.00 | 49 | 974.6 |
| 20260508090526 | 3 | 133 | 3.2 | 9.7 | 0.00 | 0.00 | 0.00 | 50 | 974.5 |
| 20260508090029 | 3 | 125 | 3.2 | 9.7 | 0.00 | 0.00 | 0.00 | 49 | 974.6 |
| 20260508085524 | 3 | 142 | 4.8 | 6.4 | 0.00 | 0.00 | 0.00 | 49 | 974.6 |
| 20260508085023 | 3 | 126 | 3.2 | 6.4 | 0.00 | 0.00 | 0.00 | 49 | 974.7 |
| 20260508084522 | 3 | 132 | 3.2 | 6.4 | 0.00 | 0.00 | 0.00 | 50 | 974.8 |
| 20260508084021 | 3 | 138 | 3.2 | 6.4 | 0.00 | 0.00 | 0.00 | 50 | 974.9 |
| 20260508083522 | 3 | 152 | 3.2 | 4.8 | 0.00 | 0.00 | 0.00 | 51 | 975.0 |
| 20260508083021 | 2 | 107 | 1.6 | 4.8 | 0.00 | 0.00 | 0.00 | 53 | 975.0 |
| 20260508082520 | 2 | 107 | 3.2 | 4.8 | 0.00 | 0.00 | 0.00 | 52 | 975.1 |
| 20260508082019 | 2 | 107 | 1.6 | 4.8 | 0.00 | 0.00 | 0.00 | 52 | 975.2 |
| 20260508081519 | 2 | 107 | 3.2 | 6.4 | 0.00 | 0.00 | 0.00 | 52 | 975.3 |
| 20260508081018 | 2 | 107 | 4.8 | 6.4 | 0.00 | 0.00 | 0.00 | 51 | 975.2 |
| 20260508080518 | 2 | 107 | 4.8 | 6.4 | 0.00 | 0.00 | 0.00 | 51 | 975.3 |
| 20260508080017 | 2 | 133 | 3.2 | 4.8 | 0.00 | 0.00 | 0.00 | 52 | 975.3 |
| 20260508075517 | 2 | 133 | 1.6 | 4.8 | 0.00 | 0.00 | 0.00 | 52 | 975.4 |
| 20260508075015 | 2 | 133 | 1.6 | 3.2 | 0.00 | 0.00 | 0.00 | 52 | 975.6 |
| 20260508074515 | 2 | 133 | 1.6 | 3.2 | 0.00 | 0.00 | 0.00 | 52 | 975.7 |
| 20260508074014 | 2 | 133 | 0.0 | 4.8 | 0.00 | 0.00 | 0.00 | 51 | 975.8 |
| 20260508073514 | 3 | 133 | 1.6 | 4.8 | 0.00 | 0.00 | 0.00 | 50 | 975.8 |
| 20260508073013 | 3 | 133 | 1.6 | 3.2 | 0.00 | 0.00 | 0.00 | 49 | 975.8 |
| 20260508072512 | 3 | 133 | 1.6 | 6.4 | 0.00 | 0.00 | 0.00 | 47 | 975.9 |
| 20260508072012 | 4 | 133 | 3.2 | 6.4 | 0.00 | 0.00 | 0.00 | 45 | 975.9 |
| 20260508071513 | 4 | 142 | 1.6 | 6.4 | 0.00 | 0.00 | 0.00 | 45 | 976.0 |
| 20260508071017 | 4 | 129 | 3.2 | 6.4 | 0.00 | 0.00 | 0.00 | 44 | 976.0 |
| 20260508070541 | 4 | 148 | 3.2 | 8.0 | 0.00 | 0.00 | 0.00 | 45 | 976.0 |
| 20260508070011 | 4 | 156 | 0.0 | 6.4 | 0.00 | 0.00 | 0.00 | 45 | 976.0 |
| 20260508065510 | 4 | 132 | 3.2 | 9.7 | 0.00 | 0.00 | 0.00 | 44 | 976.0 |
| 20260508065009 | 4 | 141 | 4.8 | 9.7 | 0.00 | 0.00 | 0.00 | 45 | 976.1 |
| 20260508064515 | 4 | 144 | 3.2 | 9.7 | 0.00 | 0.00 | 0.00 | 45 | 976.1 |
| 20260508064008 | 4 | 130 | 3.2 | 9.7 | 0.00 | 0.00 | 0.00 | 45 | 976.2 |
| 20260508063507 | 4 | 135 | 3.2 | 6.4 | 0.00 | 0.00 | 0.00 | 45 | 976.3 |
| 20260508063007 | 3 | 128 | 1.6 | 4.8 | 0.00 | 0.00 | 0.00 | 46 | 976.4 |
| 20260508062505 | 3 | 131 | 1.6 | 6.4 | 0.00 | 0.00 | 0.00 | 47 | 976.4 |
| 20260508062005 | 3 | 164 | 3.2 | 6.4 | 0.00 | 0.00 | 0.00 | 47 | 976.4 |
| 20260508061512 | 3 | 126 | 3.2 | 6.4 | 0.00 | 0.00 | 0.00 | 48 | 976.4 |
| 20260508061008 | 3 | 123 | 0.0 | 3.2 | 0.00 | 0.00 | 0.00 | 49 | 976.5 |
| 20260508060504 | 3 | 123 | 0.0 | 3.2 | 0.00 | 0.00 | 0.00 | 49 | 976.6 |
| 20260508060004 | 3 | 123 | 1.6 | 6.4 | 0.00 | 0.00 | 0.00 | 48 | 976.6 |
| 20260508055503 | 3 | 123 | 3.2 | 6.4 | 0.00 | 0.00 | 0.00 | 46 | 976.6 |
| 20260508055002 | 3 | 132 | 3.2 | 8.0 | 0.00 | 0.00 | 0.00 | 45 | 976.6 |
| 20260508054502 | 3 | 140 | 4.8 | 9.7 | 0.00 | 0.00 | 0.00 | 45 | 976.7 |
| 20260508054100 | 3 | 128 | 3.2 | 4.8 | 0.00 | 0.00 | 0.00 | 46 | 976.7 |
| 20260508053559 | 3 | 89 | 0.0 | 3.2 | 0.00 | 0.00 | 0.00 | 48 | 976.9 |
| 20260508053102 | 3 | 89 | 0.0 | 1.6 | 0.00 | 0.00 | 0.00 | 50 | 977.0 |
| 20260508052557 | 3 | 89 | 0.0 | 1.6 | 0.00 | 0.00 | 0.00 | 50 | 977.0 |
| 20260508052056 | 3 | 89 | 0.0 | 3.2 | 0.00 | 0.00 | 0.00 | 49 | 977.1 |
| 20260508051556 | 2 | 89 | 0.0 | 1.6 | 0.00 | 0.00 | 0.00 | 47 | 977.0 |
| 20260508051055 | 2 | 89 | 0.0 | 1.6 | 0.00 | 0.00 | 0.00 | 47 | 977.0 |
| 20260508050555 | 2 | 89 | 0.0 | 3.2 | 0.00 | 0.00 | 0.00 | 47 | 977.0 |
| 20260508050054 | 2 | 89 | 0.0 | 3.2 | 0.00 | 0.00 | 0.00 | 47 | 977.1 |
| 20260508045553 | 2 | 89 | 0.0 | 3.2 | 0.00 | 0.00 | 0.00 | 46 | 977.1 |
| 20260508045052 | 2 | 89 | 0.0 | 3.2 | 0.00 | 0.00 | 0.00 | 46 | 977.0 |
| 20260508044552 | 2 | 89 | 1.6 | 3.2 | 0.00 | 0.00 | 0.00 | 46 | 977.3 |
| 20260508044054 | 2 | 89 | 0.0 | 1.6 | 0.00 | 0.00 | 0.00 | 46 | 977.3 |
| 20260508043553 | 2 | 89 | 0.0 | 1.6 | 0.00 | 0.00 | 0.00 | 46 | 977.3 |
| 20260508043059 | 2 | 89 | 0.0 | 3.2 | 0.00 | 0.00 | 0.00 | 46 | 977.4 |
| 20260508042552 | 2 | 89 | 0.0 | 4.8 | 0.00 | 0.00 | 0.00 | 46 | 977.4 |
| 20260508042052 | 2 | 89 | 0.0 | 4.8 | 0.00 | 0.00 | 0.00 | 46 | 977.4 |
| 20260508041556 | 2 | 89 | 1.6 | 4.8 | 0.00 | 0.00 | 0.00 | 46 | 977.5 |
| 20260508041051 | 2 | 90 | 0.0 | 3.2 | 0.00 | 0.00 | 0.00 | 45 | 977.5 |
| 20260508040551 | 2 | 90 | 0.0 | 3.2 | 0.00 | 0.00 | 0.00 | 44 | 977.6 |
| 20260508040050 | 2 | 90 | 0.0 | 3.2 | 0.00 | 0.00 | 0.00 | 44 | 977.5 |
| 20260508035550 | 3 | 90 | 0.0 | 3.2 | 0.00 | 0.00 | 0.00 | 43 | 977.6 |
| 20260508035049 | 3 | 90 | 0.0 | 3.2 | 0.00 | 0.00 | 0.00 | 42 | 977.5 |
| 20260508034555 | 3 | 90 | 0.0 | 1.6 | 0.00 | 0.00 | 0.00 | 43 | 977.7 |
| 20260508034049 | 3 | 90 | 0.0 | 1.6 | 0.00 | 0.00 | 0.00 | 43 | 977.5 |
| 20260508033548 | 3 | 90 | 0.0 | 1.6 | 0.00 | 0.00 | 0.00 | 43 | 977.5 |
| 20260508033048 | 4 | 90 | 0.0 | 1.6 | 0.00 | 0.00 | 0.00 | 42 | 977.7 |
| 20260508032548 | 4 | 90 | 0.0 | 0.0 | 0.00 | 0.00 | 0.00 | 42 | 977.7 |
| 20260508032049 | 4 | 90 | 0.0 | 1.6 | 0.00 | 0.00 | 0.00 | 41 | 977.7 |
| 20260508031547 | 5 | 90 | 0.0 | 1.6 | 0.00 | 0.00 | 0.00 | 41 | 977.9 |
| 20260508031046 | 5 | 90 | 0.0 | 1.6 | 0.00 | 0.00 | 0.00 | 41 | 977.8 |
| 20260508030548 | 5 | 90 | 0.0 | 3.2 | 0.00 | 0.00 | 0.00 | 40 | 977.8 |
| 20260508030047 | 5 | 90 | 0.0 | 3.2 | 0.00 | 0.00 | 0.00 | 41 | 977.9 |
| 20260508025548 | 5 | 90 | 0.0 | 3.2 | 0.00 | 0.00 | 0.00 | 39 | 977.9 |
| 20260508025047 | 6 | 42 | 0.0 | 1.6 | 0.00 | 0.00 | 0.00 | 41 | 977.8 |
| 20260508024549 | 6 | 42 | 0.0 | 1.6 | 0.00 | 0.00 | 0.00 | 38 | 977.9 |
| 20260508024048 | 6 | 42 | 0.0 | 1.6 | 0.00 | 0.00 | 0.00 | 39 | 977.9 |
| 20260508023546 | 6 | 42 | 0.0 | 1.6 | 0.00 | 0.00 | 0.00 | 40 | 977.9 |
| 20260508023050 | 6 | 42 | 0.0 | 0.0 | 0.00 | 0.00 | 0.00 | 41 | 978.1 |
| 20260508022546 | 6 | 42 | 0.0 | 3.2 | 0.00 | 0.00 | 0.00 | 41 | 978.0 |
| 20260508022048 | 6 | 42 | 0.0 | 4.8 | 0.00 | 0.00 | 0.00 | 42 | 978.0 |
| 20260508021547 | 6 | 42 | 1.6 | 4.8 | 0.00 | 0.00 | 0.00 | 40 | 977.9 |
| 20260508021045 | 7 | 42 | 0.0 | 0.0 | 0.00 | 0.00 | 0.00 | 37 | 977.9 |
| 20260508020545 | 7 | 42 | 0.0 | 0.0 | 0.00 | 0.00 | 0.00 | 35 | 977.8 |
| 20260508020045 | 7 | 42 | 0.0 | 0.0 | 0.00 | 0.00 | 0.00 | 34 | 977.8 |
| 20260508015544 | 7 | 42 | 0.0 | 0.0 | 0.00 | 0.00 | 0.00 | 34 | 977.8 |
| 20260508015044 | 8 | 42 | 0.0 | 0.0 | 0.00 | 0.00 | 0.00 | 33 | 977.8 |
| 20260508014551 | 8 | 42 | 0.0 | 1.6 | 0.00 | 0.00 | 0.00 | 32 | 977.8 |
| 20260508014048 | 8 | 42 | 0.0 | 1.6 | 0.00 | 0.00 | 0.00 | 31 | 977.8 |
| 20260508013543 | 8 | 42 | 0.0 | 1.6 | 0.00 | 0.00 | 0.00 | 32 | 977.9 |
| 20260508013046 | 8 | 42 | 0.0 | 1.6 | 0.00 | 0.00 | 0.00 | 32 | 977.9 |
| 20260508012543 | 9 | 42 | 0.0 | 4.8 | 0.00 | 0.00 | 0.00 | 31 | 978.0 |
| 20260508012042 | 9 | 42 | 1.6 | 4.8 | 0.00 | 0.00 | 0.00 | 30 | 978.0 |
| 20260508011545 | 9 | 43 | 1.6 | 6.4 | 0.00 | 0.00 | 0.00 | 30 | 978.0 |
| 20260508011042 | 9 | 32 | 1.6 | 6.4 | 0.00 | 0.00 | 0.00 | 30 | 978.1 |
| 20260508010545 | 9 | 9 | 0.0 | 4.8 | 0.00 | 0.00 | 0.00 | 31 | 978.1 |
| 20260508010044 | 10 | 15 | 1.6 | 8.0 | 0.00 | 0.00 | 0.00 | 30 | 978.1 |
| 20260508005543 | 10 | 344 | 3.2 | 8.0 | 0.00 | 0.00 | 0.00 | 29 | 978.1 |
| 20260508005040 | 10 | 10 | 1.6 | 8.0 | 0.00 | 0.00 | 0.00 | 29 | 978.2 |
| 20260508004542 | 10 | 360 | 1.6 | 9.7 | 0.00 | 0.00 | 0.00 | 29 | 978.2 |
| 20260508004040 | 10 | 355 | 3.2 | 12.9 | 0.00 | 0.00 | 0.00 | 28 | 978.2 |
| 20260508003540 | 10 | 355 | 4.8 | 12.9 | 0.00 | 0.00 | 0.00 | 28 | 978.1 |
| 20260508003056 | 10 | 24 | 4.8 | 12.9 | 0.00 | 0.00 | 0.00 | 27 | 978.1 |
| 20260508002540 | 10 | 325 | 4.8 | 17.7 | 0.00 | 0.00 | 0.00 | 27 | 978.2 |
| 20260508002040 | 11 | 5 | 4.8 | 17.7 | 0.00 | 0.00 | 0.00 | 27 | 978.3 |
| 20260508001543 | 11 | 355 | 6.4 | 16.1 | 0.00 | 0.00 | 0.00 | 27 | 978.3 |
| 20260508001039 | 11 | 344 | 6.4 | 16.1 | 0.00 | 0.00 | 0.00 | 26 | 978.3 |
| 20260508000540 | 11 | 19 | 4.8 | 17.7 | 0.00 | 0.00 | 0.00 | 27 | 978.3 |
| 20260508000043 | 11 | 319 | 8.0 | 19.3 | 0.00 | 0.00 | 0.00 | 27 | 978.5 |
| 20260507235541 | 11 | 318 | 9.7 | 19.3 | 0.00 | 0.00 | 0.00 | 27 | 978.3 |
| 20260507235038 | 11 | 327 | 9.7 | 17.7 | 0.00 | 0.00 | 0.00 | 26 | 978.3 |
| 20260507234539 | 11 | 355 | 8.0 | 16.1 | 0.00 | 0.00 | 0.00 | 26 | 978.5 |